Merrill Field Anchorage US
ICAO: PAMR
IATA:
Category: Medium
Scheduled Services:

Elevation: 137 ft
TransAlt. 18000 ft.

Airport Communications:
ANCHORAGE APP/DEP:119.1
ATIS:124.25
CTAF:126
KENAI RDO:122.2
GND:121.7
KENAI RDO:122.3
TWR:126
UNICOM:122.95

PAMR Zoom In..

Runways:

(A) RW 05 length 2000 ft width 60 ft
---- / hdg 47

(B) RW 07 length 4000 ft width 100 ft
---- / hdg 71

(C) RW 16 length 2640 ft width 75 ft
---- / hdg 161

(D) RW 23 length 2000 ft width 60 ft
---- / hdg 227

(E) RW 25 length 4000 ft width 100 ft
---- / hdg 251

(F) RW 34 length 2640 ft width 75 ft
---- / hdg 341

Location; PAMR
Day. 04 / Time. 12.53 Zulu
* Altimeter: 29.83
* Temperature: -09° c. -15.8°f.
* Wind from: 000° Speed 00 kn.
Dewpoint: -12° c.
Visibility: 10 Statute Miles.
Clouds: Overcast 1100 ft.

PAMR 041253Z 00000KT 10SM OVC011 M09/M12 A2983 RMK AO2 SLP105 T10941122 $

Going to: --> -->


Wind - Calm.

 
 
jpsmedia worldairports.se 2020   terms of use